Theta_e
351 348 345 346 348 347 350 347 345 343 341 340 343 344 343 342 342 340 341 339 340 342 344 343 341 337 335 334 329 323 320 328 336 338 338 339 339 337 337 336 336 337 334
351 349 344 345 345 345 345 345 344 342 340 341 343 341 340 341 340 341 340 340 339 338 339 341 341 341 340 331 325 328 335 337 337 338 338 339 339 338 337 336 335 334 333
350 349 348 346 346 346 346 348 346 342 339 340 341 338 337 340 341 339 339 338 336 336 335 337 342 341 335 328 333 335 336 336 336 336 339 339 339 336 335 334 333 332 331
347 346 348 347 347 348 349 349 347 342 339 339 339 338 338 337 337 335 337 339 337 339 341 342 342 339 331 336 336 336 335 335 335 338 337 338 337 335 334 333 333 331 330
346 349 347 346 347 347 347 348 347 342 339 338 337 337 337 336 335 336 337 338 338 340 342 342 340 335 335 336 334 334 333 332 334 335 334 336 337 335 333 331 330 329 327
343 347 344 344 346 346 346 345 345 343 340 338 338 337 337 335 336 337 338 338 338 339 342 341 336 333 334 334 334 333 332 331 332 333 336 336 335 334 332 329 328 326 325
337 340 343 341 342 344 344 344 344 344 343 342 339 337 335 335 335 337 337 337 338 339 342 339 335 334 334 334 334 332 328 331 334 333 336 335 333 331 330 328 326 325 324
331 334 338 338 339 340 342 343 343 343 342 342 342 338 335 335 335 337 336 335 336 340 340 338 334 335 334 333 332 330 330 330 330 335 335 334 330 330 328 326 324 323 323
328 331 330 335 339 339 337 339 342 342 341 341 341 340 337 336 336 337 336 336 335 335 340 337 334 334 334 333 332 329 326 328 331 333 332 331 329 328 327 324 323 323 322
314 321 320 329 333 335 339 341 336 339 341 341 341 340 338 336 336 337 336 335 334 335 339 333 333 334 334 332 331 325 329 330 331 330 330 329 326 326 324 323 322 323 320
310 312 313 317 323 332 333 340 341 338 338 339 339 340 339 338 337 336 334 335 336 336 338 332 334 334 333 332 329 324 327 331 329 329 330 326 324 324 323 322 321 321 320
311 310 312 315 318 321 327 333 339 341 342 341 340 340 341 339 337 335 333 334 335 337 337 332 335 334 333 332 329 324 330 330 330 330 327 323 324 324 323 321 320 320 320
310 310 311 312 317 320 321 327 337 340 343 343 342 341 341 339 338 334 332 333 333 336 336 332 335 333 332 331 330 329 333 330 330 328 324 322 323 324 322 321 322 321 320
309 309 311 311 314 319 321 324 329 338 340 342 343 342 340 338 337 333 333 333 334 334 336 334 333 332 332 331 331 331 331 331 329 327 323 322 322 322 322 322 321 321 319
308 308 309 312 313 316 320 324 326 331 339 340 342 342 340 338 336 333 333 333 335 333 337 335 333 331 333 332 330 331 331 331 330 327 323 320 321 321 323 322 321 320 319
306 307 308 310 312 313 316 320 324 330 335 339 340 341 340 338 337 334 333 332 334 334 336 334 333 332 333 332 331 331 331 330 329 327 324 321 320 320 321 322 320 320 319
305 306 306 308 311 311 314 316 320 326 333 338 339 339 339 339 337 336 333 332 331 333 335 335 333 334 333 333 331 332 331 330 329 327 322 320 320 319 320 320 319 319 319
303 304 305 306 309 309 312 315 318 323 327 333 337 335 337 338 337 336 334 333 332 332 334 334 334 334 333 332 332 331 331 330 328 326 322 321 320 320 319 318 319 318 318
302 302 303 305 307 307 310 312 315 318 323 330 337 336 337 336 338 336 334 335 334 334 334 334 334 334 332 332 331 332 331 329 328 326 324 321 320 320 319 318 317 317 317
301 301 302 304 305 306 308 309 311 314 316 321 330 336 336 336 337 336 335 334 334 334 333 333 334 333 332 331 331 331 330 329 328 326 324 322 321 320 320 319 317 317 317
300 300 301 302 303 304 304 306 307 309 313 317 322 330 336 335 336 335 334 334 333 333 332 330 331 332 331 331 330 330 329 328 327 326 325 322 321 320 320 320 318 318 316
299 299 300 301 302 303 302 303 304 306 310 311 315 323 332 336 335 335 334 333 332 332 331 332 330 329 329 330 328 324 324 324 326 326 325 323 322 320 319 319 318 318 317
298 298 299 300 301 302 302 301 303 304 306 308 308 313 323 326 332 335 334 333 332 331 330 330 330 329 328 328 328 326 324 326 325 326 326 325 324 323 321 320 319 318 318
297 297 298 298 300 300 301 301 301 302 302 304 306 307 312 318 329 335 335 334 332 331 331 330 329 329 328 327 327 327 326 325 327 328 326 326 325 325 323 320 319 319 318
296 296 297 297 298 299 300 301 301 301 302 302 304 305 307 315 325 332 335 335 333 330 330 329 328 328 329 328 328 326 326 326 328 329 330 326 326 325 325 323 322 322 321
294 295 296 297 297 298 299 299 300 300 301 301 302 303 304 306 314 325 333 334 334 331 329 329 329 329 329 328 327 327 327 328 328 329 331 329 327 326 325 325 325 324 324
Wind_Speed
14 18 17 16 15 14 14 13 12 12 13 16 21 22 22 23 24 25 23 24 24 22 21 19 18 19 19 19 20 23 27 28 26 23 21 22 22 24 24 23 22 21 21
14 14 16 15 14 14 13 12 12 12 15 19 21 22 23 25 25 23 23 23 23 24 19 16 18 20 20 22 27 30 28 25 25 24 24 24 23 20 22 23 21 20 20
13 9 11 11 11 12 11 13 13 12 16 19 20 22 22 23 25 21 22 21 21 10 16 21 21 20 21 28 28 27 26 25 24 23 22 19 19 20 19 19 20 20 19
8 9 9 9 8 7 9 11 11 12 15 18 19 21 23 22 21 18 19 20 19 20 24 23 22 22 27 26 26 26 26 27 25 25 16 17 17 17 18 18 19 19 18
8 14 11 8 7 7 5 7 8 9 13 15 17 20 22 18 17 15 17 19 21 24 24 23 23 26 28 25 25 26 26 22 21 16 16 14 16 17 16 16 17 17 18
24 13 10 7 4 5 5 6 6 8 10 12 15 18 19 16 16 16 17 19 24 25 23 24 25 28 25 25 25 26 23 19 14 12 13 17 16 17 17 18 16 17 20
32 25 11 6 4 2 2 5 5 6 9 11 14 18 17 15 15 16 18 19 23 23 24 21 26 26 27 26 25 23 16 11 5 14 14 15 16 15 15 15 17 19 18
30 28 24 16 6 1 1 3 5 7 7 10 13 17 18 14 15 15 15 17 19 23 23 21 27 27 27 26 23 18 13 9 9 17 14 16 15 15 15 17 18 18 19
25 27 25 19 18 9 6 4 6 7 7 9 11 13 15 13 18 20 17 17 16 19 22 23 28 27 27 24 19 19 14 9 6 10 9 13 13 14 15 17 17 18 19
32 27 30 22 18 17 14 7 6 9 8 8 11 13 14 17 21 22 20 20 20 19 21 25 28 27 25 22 17 18 15 11 10 10 9 11 12 14 15 17 17 18 19
32 33 30 23 19 15 16 10 8 8 9 10 11 14 16 19 23 24 25 20 19 22 23 27 29 28 24 19 16 15 17 7 9 7 13 15 13 14 16 17 17 18 18
33 26 26 22 20 18 14 14 10 7 7 9 11 13 16 21 27 29 29 24 22 23 22 28 29 26 20 15 14 13 10 7 6 8 12 15 15 16 17 18 17 17 17
24 26 23 24 23 18 18 14 10 9 6 5 9 11 17 22 26 30 32 29 24 23 23 26 27 22 19 16 14 13 9 9 7 13 14 16 16 16 16 18 18 18 17
18 19 23 22 23 21 19 14 13 12 8 6 5 10 17 24 25 31 32 32 29 28 26 26 25 22 20 17 15 13 10 8 9 13 14 16 16 16 17 18 17 18 16
19 21 26 27 25 22 19 17 17 13 11 8 6 7 15 22 27 29 29 26 26 29 28 27 26 24 16 15 16 12 12 5 9 13 13 16 16 16 18 17 17 17 17
21 22 23 23 22 21 19 17 17 16 14 11 7 7 13 22 26 30 31 33 27 30 29 28 27 23 20 16 14 13 12 10 10 11 14 16 16 17 16 17 16 16 16
21 23 24 23 22 24 21 20 16 15 16 13 10 8 10 17 26 27 32 30 37 24 30 25 24 23 24 17 17 15 12 12 11 12 14 15 17 16 17 16 16 17 16
22 25 25 24 24 26 23 20 17 16 17 15 13 13 11 14 26 26 28 33 30 34 30 24 24 21 21 20 20 16 14 12 12 13 14 15 16 16 17 16 17 16 17
23 24 26 26 27 28 23 21 19 16 15 13 11 11 11 11 23 24 26 26 28 30 32 24 25 24 24 19 18 16 14 14 14 13 14 15 16 17 17 18 17 18 18
24 24 24 26 27 27 24 23 21 18 19 19 12 10 13 12 23 27 27 28 31 32 30 30 25 25 24 22 18 17 14 14 14 13 14 15 16 16 16 18 19 18 19
25 26 26 26 27 27 26 27 26 24 23 19 19 13 15 15 19 27 28 28 32 32 33 31 27 28 23 23 19 13 7 10 13 13 14 14 16 17 17 17 18 17 20
25 26 26 26 26 25 25 23 23 23 16 19 18 15 11 14 16 25 26 29 36 35 35 34 37 24 18 29 13 11 2 1 7 10 14 16 17 17 18 18 18 18 18
26 26 26 26 25 24 25 24 24 22 19 20 27 24 17 13 13 22 30 29 34 36 37 38 34 32 23 29 24 11 4 4 10 12 14 16 19 18 18 19 19 19 18
26 25 26 26 26 25 25 23 24 22 23 22 23 26 25 18 16 21 25 30 33 35 37 36 38 34 31 27 28 27 17 13 5 4 15 17 18 20 19 20 21 21 20
26 26 25 26 26 26 26 24 22 22 22 22 23 26 26 22 17 14 23 29 32 35 37 39 37 37 33 29 30 29 23 17 21 5 7 16 18 22 20 21 22 22 22
26 26 25 26 25 26 26 25 24 23 24 25 25 25 27 27 21 16 16 23 30 33 30 31 37 34 28 31 34 31 32 22 18 13 8 18 20 23 25 24 23 23 23
Wind_Direction
103 137 147 143 141 146 151 155 159 159 151 153 156 156 154 151 149 146 145 149 145 140 132 137 141 137 132 131 132 128 121 116 112 111 111 107 107 108 105 103 100 99 99
104 127 142 142 145 149 153 160 164 162 158 158 160 160 157 154 153 147 148 149 144 137 139 141 140 132 132 130 129 124 120 119 117 116 111 108 107 105 112 111 106 105 105
84 110 118 133 144 153 150 153 159 158 163 164 164 163 160 159 160 157 156 160 164 177 165 154 143 138 136 138 133 128 126 123 118 112 111 113 109 109 113 115 108 105 105
78 109 110 120 132 148 146 152 157 160 168 169 171 166 162 160 164 164 165 168 171 152 150 149 142 143 145 143 137 132 128 125 120 122 110 115 114 111 108 106 103 104 101
47 98 102 120 128 137 144 154 160 169 175 180 177 174 173 173 175 172 169 167 158 153 149 146 148 149 149 146 140 137 132 127 131 142 126 126 117 114 112 108 102 105 108
31 53 89 112 115 128 151 165 176 182 187 197 193 187 184 182 176 173 166 162 160 157 154 154 154 153 152 147 145 141 134 130 142 128 99 107 120 117 114 129 121 110 106
31 39 54 81 102 123 142 158 191 209 204 208 210 200 196 197 195 182 173 170 164 161 156 160 159 157 153 151 149 145 142 151 187 117 119 121 122 120 118 115 111 111 114
20 23 34 31 4 45 219 210 198 206 210 215 216 214 213 212 199 178 165 168 173 164 159 164 161 159 157 154 152 148 147 124 120 118 124 125 132 124 120 117 118 118 117
20 16 8 15 23 19 307 258 243 233 213 213 220 218 211 201 181 178 174 170 183 177 165 170 163 164 160 159 157 157 144 154 124 119 124 124 139 130 126 124 122 123 120
20 6 358 360 1 4 5 289 285 257 235 221 218 220 214 193 188 184 176 175 182 188 173 170 166 167 165 165 164 156 144 128 128 143 147 135 144 135 134 130 127 126 124
21 9 348 352 355 354 347 345 303 282 255 231 218 214 202 188 189 188 178 179 187 189 178 173 172 171 170 170 167 157 157 173 147 148 122 146 145 141 137 134 132 132 130
16 356 341 350 355 354 342 331 327 286 254 237 218 210 197 188 190 186 179 181 190 189 186 176 174 173 166 165 168 170 196 162 163 132 126 142 144 142 141 138 137 136 136
10 353 336 350 354 352 344 333 321 312 292 258 225 209 194 190 185 188 187 184 187 192 181 175 176 172 179 174 177 188 205 172 155 119 138 148 151 147 146 146 139 139 140
358 344 345 353 354 349 342 332 323 311 296 289 253 211 192 189 189 190 192 192 190 191 185 175 179 182 191 185 178 202 171 191 147 123 149 156 157 153 151 151 146 143 145
355 350 351 355 352 345 341 331 333 312 293 279 263 231 200 193 195 197 196 197 198 197 191 180 182 186 182 194 185 187 177 179 140 137 157 163 158 159 154 154 153 154 154
352 357 353 349 347 343 341 333 328 316 307 283 269 248 213 201 201 200 197 206 198 205 200 184 185 182 183 190 178 177 173 165 166 146 155 165 168 165 165 160 158 159 159
352 352 351 349 347 348 345 340 328 313 308 298 279 275 241 210 202 201 203 204 217 219 206 199 180 175 181 176 183 183 175 171 164 155 156 166 170 171 173 168 170 167 165
355 352 350 351 350 349 347 342 332 319 317 303 282 279 265 225 203 209 203 211 216 219 204 199 170 175 180 183 180 181 177 174 170 167 167 167 172 175 178 181 172 173 172
0 355 350 351 352 349 347 344 337 327 320 322 282 274 273 244 206 214 207 208 200 209 200 193 176 175 177 183 185 181 180 178 177 176 172 175 177 177 181 187 186 183 184
0 359 355 353 352 351 348 346 344 338 326 328 315 278 270 252 217 209 210 210 205 203 191 184 179 179 178 182 187 184 181 183 189 182 179 182 181 181 184 179 187 194 196
1 1 358 357 353 353 352 347 345 339 333 330 335 314 263 253 232 210 204 215 200 191 191 198 192 191 185 191 181 169 167 177 190 188 185 188 185 188 186 183 189 194 199
1 1 359 358 354 354 350 344 341 336 327 326 330 316 317 250 235 216 213 201 204 199 201 199 196 192 187 186 165 126 110 246 192 205 197 198 186 193 193 192 195 195 196
1 360 358 357 356 353 351 346 345 344 343 340 343 335 322 307 271 236 213 212 199 202 202 202 194 193 192 190 188 159 149 191 175 209 214 207 191 200 200 200 202 202 200
357 356 356 356 356 356 352 352 349 348 343 337 332 332 324 320 303 242 215 218 215 210 199 200 202 203 196 196 198 198 194 161 182 162 214 217 205 207 205 204 206 208 207
352 353 354 354 355 357 354 352 349 343 342 338 337 337 334 325 326 274 231 226 222 212 211 204 203 216 197 195 199 198 199 189 181 153 189 204 213 209 212 211 208 209 211
352 350 353 353 353 356 356 353 348 344 342 344 343 340 338 336 330 353 258 231 231 216 212 206 213 208 199 211 205 200 199 192 191 194 242 190 201 209 211 210 218 212 212